When you browse on this site, cookies collect data to enhance your experience and personalize the content and advertising you see.
Visit our Privacy Policy to learn more. By continuing to use the site, you agree to this use of cookies and data.
  • In Romania
  • List of Countries
  • For 7 days
  • Water Temperature
  • Weather Map
  • Weather Widgets
  • user-avatar
    Login

    Hourly Weather Aylesbury

    Today, 6 December, Friday

    Time Temperature Precipitation Wind Pressure Humidity
    00:00 +8°C° 0 mm 9 mps 749 mmHg 88%
    01:00 +9°C° 0 mm 8 mps 749 mmHg 88%
    02:00 +9°C° 0 mm 8 mps 748 mmHg 89%
    03:00 +9°C° 0 mm 8 mps 747 mmHg 90%
    04:00 +9°C° 0.1 mm 8 mps 747 mmHg 91%
    05:00 +10°C° 0.1 mm 8 mps 747 mmHg 92%
    06:00 +10°C° 0.1 mm 7 mps 747 mmHg 93%
    07:00 +10°C° 0.4 mm 7 mps 746 mmHg 93%
    08:00 +10°C° 0.4 mm 8 mps 746 mmHg 93%
    09:00 +11°C° 0.4 mm 8 mps 745 mmHg 93%
    10:00 +11°C° 0.1 mm 8 mps 745 mmHg 90%
    11:00 +11°C° 0.1 mm 8 mps 744 mmHg 87%
    12:00 +11°C° 0.1 mm 8 mps 744 mmHg 84%
    13:00 +11°C° 0.4 mm 9 mps 743 mmHg 84%
    14:00 +10°C° 0.4 mm 9 mps 743 mmHg 84%
    15:00 +10°C° 0.4 mm 9 mps 742 mmHg 84%
    16:00 +9°C° 0.1 mm 8 mps 743 mmHg 84%
    17:00 +7°C° 0.1 mm 8 mps 744 mmHg 84%
    18:00 +6°C° 0.1 mm 7 mps 744 mmHg 83%
    19:00 +6°C° 0 mm 7 mps 745 mmHg 84%
    20:00 +7°C° 0 mm 6 mps 746 mmHg 85%
    21:00 +5°C° 0 mm 6 mps 747 mmHg 86%
    22:00 +5°C° 0 mm 6 mps 748 mmHg 87%
    23:00 +6°C° 0 mm 5 mps 748 mmHg 88%

    Tomorrow, 7 December, Saturday

    Time Temperature Precipitation Wind Pressure Humidity
    00:00 +6°C° 0 mm 5 mps 749 mmHg 90%
    01:00 +6°C° 0 mm 5 mps 749 mmHg 90%
    02:00 +5°C° 0 mm 5 mps 749 mmHg 91%
    03:00 +5°C° 0 mm 5 mps 750 mmHg 91%
    04:00 +5°C° 0 mm 5 mps 750 mmHg 92%
    05:00 +5°C° 0 mm 5 mps 750 mmHg 92%
    06:00 +5°C° 0 mm 4 mps 751 mmHg 92%
    07:00 +5°C° 0 mm 4 mps 751 mmHg 91%
    08:00 +5°C° 0 mm 4 mps 751 mmHg 91%
    09:00 +5°C° 0 mm 4 mps 752 mmHg 90%
    10:00 +6°C° 0 mm 4 mps 752 mmHg 87%
    11:00 +7°C° 0 mm 5 mps 752 mmHg 85%
    12:00 +8°C° 0 mm 5 mps 752 mmHg 82%
    13:00 +8°C° 0 mm 5 mps 751 mmHg 84%
    14:00 +7°C° 0 mm 4 mps 751 mmHg 86%
    15:00 +7°C° 0 mm 4 mps 751 mmHg 87%
    16:00 +7°C° 0 mm 4 mps 751 mmHg 89%
    17:00 +6°C° 0 mm 5 mps 751 mmHg 92%
    18:00 +6°C° 0 mm 5 mps 750 mmHg 94%
    19:00 +5°C° 0 mm 6 mps 750 mmHg 93%
    20:00 +5°C° 0 mm 6 mps 749 mmHg 93%
    21:00 +5°C° 0 mm 7 mps 748 mmHg 93%
    22:00 +6°C° 0 mm 8 mps 747 mmHg 91%
    23:00 +7°C° 0 mm 9 mps 746 mmHg 90%

    Day after tomorrow, 8 December, Sunday

    Time Temperature Precipitation Wind Pressure Humidity
    00:00 +8°C° 0 mm 9 mps 745 mmHg 88%
    01:00 +8°C° 1 mm 10 mps 744 mmHg 89%
    02:00 +9°C° 1 mm 10 mps 742 mmHg 91%
    03:00 +11°C° 1 mm 10 mps 741 mmHg 92%
    04:00 +10°C° 0.1 mm 9 mps 741 mmHg 88%
    05:00 +9°C° 0.1 mm 8 mps 742 mmHg 84%
    06:00 +7°C° 0.1 mm 8 mps 742 mmHg 80%
    07:00 +6°C° 0 mm 7 mps 742 mmHg 80%
    08:00 +5°C° 0 mm 7 mps 743 mmHg 80%
    09:00 +5°C° 0 mm 7 mps 743 mmHg 81%
    10:00 +5°C° 0.1 mm 8 mps 743 mmHg 78%
    11:00 +6°C° 0.1 mm 8 mps 743 mmHg 76%
    12:00 +6°C° 0.1 mm 9 mps 743 mmHg 74%
    13:00 +6°C° 0.3 mm 9 mps 742 mmHg 76%
    14:00 +6°C° 0.3 mm 9 mps 742 mmHg 77%
    15:00 +5°C° 0.3 mm 8 mps 741 mmHg 79%
    16:00 +5°C° 0.1 mm 8 mps 741 mmHg 79%
    17:00 +4°C° 0.1 mm 8 mps 741 mmHg 79%
    18:00 +4°C° 0.1 mm 8 mps 740 mmHg 79%
    19:00 +3°C° 0.2 mm 9 mps 740 mmHg 82%
    20:00 +3°C° 0.2 mm 9 mps 739 mmHg 84%
    21:00 +3°C° 0.2 mm 10 mps 738 mmHg 86%
    22:00 +3°C° 0.2 mm 11 mps 737 mmHg 84%
    23:00 +3°C° 0.2 mm 11 mps 736 mmHg 81%

    9 December, Monday

    Time Temperature Precipitation Wind Pressure Humidity
    00:00 +3°C° 0.2 mm 11 mps 734 mmHg 78%
    01:00 +4°C° 0.3 mm 11 mps 734 mmHg 79%
    02:00 +4°C° 0.3 mm 11 mps 734 mmHg 80%
    03:00 +4°C° 0.3 mm 11 mps 735 mmHg 81%
    04:00 +3°C° 0.1 mm 11 mps 735 mmHg 80%
    05:00 +3°C° 0.1 mm 10 mps 736 mmHg 80%
    06:00 +2°C° 0.1 mm 10 mps 737 mmHg 79%
    07:00 +2°C° 0.2 mm 11 mps 737 mmHg 80%
    08:00 +3°C° 0.2 mm 11 mps 737 mmHg 81%
    09:00 +3°C° 0.2 mm 12 mps 738 mmHg 83%
    10:00 +3°C° 0.1 mm 11 mps 739 mmHg 79%
    11:00 +5°C° 0.1 mm 10 mps 741 mmHg 75%
    12:00 +5°C° 0.1 mm 9 mps 743 mmHg 72%
    13:00 +5°C° 0 mm 8 mps 745 mmHg 72%
    14:00 +5°C° 0 mm 8 mps 747 mmHg 72%
    15:00 +5°C° 0 mm 7 mps 749 mmHg 72%
    16:00 +4°C° 0 mm 6 mps 750 mmHg 75%
    17:00 +3°C° 0 mm 5 mps 752 mmHg 77%
    18:00 +2°C° 0 mm 5 mps 753 mmHg 79%
    19:00 +3°C° 0 mm 4 mps 754 mmHg 79%
    20:00 +1°C° 0 mm 4 mps 755 mmHg 80%
    21:00 0°C° 0 mm 4 mps 756 mmHg 81%
    22:00 +1°C° 0 mm 3 mps 757 mmHg 81%
    23:00 +2°C° 0 mm 2 mps 757 mmHg 81%

    10 December, Tuesday

    Time Temperature Precipitation Wind Pressure Humidity
    00:00 +1°C° 0 mm 2 mps 758 mmHg 82%
    01:00 +1°C° 0 mm 2 mps 758 mmHg 82%
    02:00 +1°C° 0 mm 2 mps 758 mmHg 81%
    03:00 +1°C° 0 mm 2 mps 758 mmHg 81%
    04:00 +1°C° 0 mm 2 mps 757 mmHg 81%
    05:00 0°C° 0 mm 3 mps 757 mmHg 81%
    06:00 0°C° 0 mm 3 mps 757 mmHg 81%
    07:00 0°C° 0 mm 4 mps 756 mmHg 80%
    08:00 +1°C° 0 mm 5 mps 755 mmHg 79%
    09:00 +2°C° 0 mm 6 mps 754 mmHg 78%
    10:00 +3°C° 0.4 mm 7 mps 753 mmHg 82%
    11:00 +4°C° 0.4 mm 8 mps 752 mmHg 86%
    12:00 +5°C° 0.4 mm 9 mps 750 mmHg 89%
    13:00 +5°C° 0.9 mm 10 mps 749 mmHg 90%
    14:00 +6°C° 0.9 mm 11 mps 747 mmHg 90%
    15:00 +7°C° 0.9 mm 11 mps 745 mmHg 91%
    16:00 +7°C° 0.8 mm 11 mps 744 mmHg 90%
    17:00 +8°C° 0.8 mm 11 mps 744 mmHg 89%
    18:00 +9°C° 0.8 mm 11 mps 743 mmHg 89%
    19:00 +7°C° 0.3 mm 10 mps 744 mmHg 85%
    20:00 +5°C° 0.3 mm 8 mps 745 mmHg 81%
    21:00 +4°C° 0.3 mm 7 mps 745 mmHg 77%
    22:00 +3°C° 0 mm 6 mps 746 mmHg 78%
    23:00 +3°C° 0 mm 6 mps 746 mmHg 79%

    11 December, Wednesday

    Time Temperature Precipitation Wind Pressure Humidity
    00:00 +2°C° 0 mm 6 mps 747 mmHg 79%
    01:00 +2°C° 0 mm 6 mps 747 mmHg 80%
    02:00 +2°C° 0 mm 5 mps 747 mmHg 81%
    03:00 +2°C° 0 mm 5 mps 746 mmHg 82%
    04:00 +2°C° 0 mm 6 mps 746 mmHg 83%
    05:00 +2°C° 0 mm 6 mps 746 mmHg 83%
    06:00 +2°C° 0 mm 6 mps 745 mmHg 83%
    07:00 +2°C° 0.1 mm 7 mps 744 mmHg 84%
    08:00 +1°C° 0.1 mm 8 mps 744 mmHg 86%
    09:00 +1°C° 0.1 mm 9 mps 743 mmHg 87%
    10:00 +1°C° 0.3 mm 9 mps 742 mmHg 86%
    11:00 +1°C° 0.3 mm 9 mps 741 mmHg 85%
    12:00 +2°C° 0.3 mm 10 mps 741 mmHg 84%
    13:00 +1°C° 0.3 mm 9 mps 740 mmHg 85%
    14:00 +1°C° 0.3 mm 9 mps 740 mmHg 86%
    15:00 +1°C° 0.3 mm 9 mps 740 mmHg 87%
    16:00 0°C° 0.7 mm 8 mps 740 mmHg 89%
    17:00 0°C° 0.7 mm 8 mps 739 mmHg 91%
    18:00 0°C° 0.7 mm 7 mps 739 mmHg 93%
    19:00 0°C° 0 mm 7 mps 739 mmHg 90%
    20:00 0°C° 0 mm 7 mps 739 mmHg 86%
    21:00 +1°C° 0 mm 6 mps 739 mmHg 83%
    22:00 +1°C° 0 mm 6 mps 738 mmHg 85%
    23:00 0°C° 0 mm 7 mps 737 mmHg 87%
    Show more